Location: Bergnerzell
(49.1816°N, 10.2565°E)
Time: 20:46:34
(UTC+00:00)

Cosmos 1782 Rocket - Pass Details

Date: 23 May 2024
Orbit: 602 x 629 km, 82.5° (Epoch: 24 June)

Event Time Altitude Azimuth Distance (km) Brightness Sun altitude
Rises 01:50:38 0° 342° (NNW) 2,900 7.5 -12.1°
Reaches altitude 10° 01:53:02 10° 333° (NNW) 1,985 6.5 -11.9°
Maximum altitude 01:56:57 33° 270° (W) 1,040 4.4 -11.5°
Enters shadow 01:59:48 16° 214° (SW) 1,600 5.0 -11.2°
